Regional Weather Roundup
Issued by NWS

Home | Current Version | Previous Version | Text Only | Print | Product List | Glossary Off
Versions: 1 2 3 4 5 6 7 8 9 10 11 12 13 14 15 16 17 18 19 20 21 22 23 24 25 26 27 28 29 30 31 32 33 34 35 36 37 38 39 40 41 42 43 44 45 46 47 48 49 50

038
ASUS44 KJAN 300503
RWRMS

MISSISSIPPI HOURLY WEATHER ROUNDUP
NATIONAL WEATHER SERVICE JACKSON MS
1200 AM CDT SAT AUG 30 2014

NOTE: "FAIR: INDICATES FEW OR NO CLOUDS BELOW 12,000 FEET WITH NO
SIGNIFICANT WEATHER AND/OR OBSTRUCTIONS TO VISIBILITY.

MSZ001>002-007>008-010>013-018>021-025>028-034>036-300600-
NORTHWEST MISSISSIPPI

CITY           SKY/WX    TMP DP  RH WIND       PRES   REMARKS
CLARKSDALE     FAIR      77  75  94 CALM      30.00R
CLEVELAND      FAIR      78  73  86 SE3       29.98R
GREENWOOD      CLOUDY    77  70  79 SW5       30.01R
GREENVILLE     MOCLDY    77  72  84 S3        29.98R
GRENADA        FAIR      75  70  83 CALM      30.01R
OLIVE BRANCH   PTCLDY    77  73  88 CALM      30.02R
OXFORD         FAIR      75  66  73 CALM      30.04R
TUNICA         MOCLDY    75  72  88 E3        30.01R
$$

MSZ003>006-009-014>017-022>024-029>033-037>039-300600-
NORTHEAST MISSISSIPPI

CITY           SKY/WX    TMP DP  RH WIND       PRES   REMARKS
BELMONT        FAIR      71  68  89 CALM      30.05R
COLUMBUS AFB   MOCLDY    74  67  79 CALM      30.03R
CORINTH          N/A     72  68  88 CALM      30.03R
GOLDN TRIANGLE MOCLDY    77  64  65 CALM      30.03S
STARKVILLE     FAIR      75  66  73 CALM      30.03R
TUPELO         PTCLDY    77  67  71 S5        30.02R
$$

MSZ040-058-300600-
CENTRAL MISSISSIPPI

CITY           SKY/WX    TMP DP  RH WIND       PRES   REMARKS
JACKSON INTL   CLOUDY    77  70  79 S6        30.02R
JACKSON HAWKNS CLOUDY    78  70  76 S5        30.03R
MERIDIAN KEY   CLOUDY    78  71  79 CALM      30.03S
MERIDIAN NAS   CLOUDY    79  71  76 CALM      30.03S
RAYMOND        FAIR      77  72  83 MISG      30.02R
VICKSBURG      CLOUDY    79  73  82 S3        30.01R
$$

MSZ059>079-300600-
SOUTH MISSISSIPPI

CITY           SKY/WX    TMP DP  RH WIND       PRES   REMARKS
BROOKHAVEN     FAIR      75  73  94 S7        30.05S
COLUMBIA       DRIZZLE   75  73  94 S5        30.03S
HATTIESBURG    CLOUDY    76  73  91 CALM      30.05R
MCCOMB         CLOUDY    75  73  93 SE6       30.03S
NATCHEZ        CLOUDY    77  72  83 SE10      30.02R
PINE BELT      CLOUDY    73  70  88 S3        30.06R
$$

MSZ080>082-300600-
COASTAL MISSISSIPPI

CITY           SKY/WX    TMP DP  RH WIND       PRES   REMARKS
BILOXI         MOCLDY    81  76  85 S10       30.03R
PASCAGOULA     MOCLDY    77  75  93 CALM      30.03S
GULFPORT       MOCLDY    81  77  88 S10       30.03R
$$



USA.gov is the U.S. government's official web portal to all federal, state and local government web resources and services.